| time (UTC) | temp C | wind direction | speed KPH | gust KPH | rain 1hr cm | rain 24hr cm | rain mn cm | humidity % | barometer mb |
| 20260505125003 | 17 | 176 | 8.0 | 20.9 | 0.00 | 0.00 | 0.00 | 59 | 1007.1 |
| 20260505124003 | 16 | 183 | 8.0 | 17.7 | 0.00 | 0.00 | 0.00 | 60 | 1007.2 |
| 20260505123003 | 16 | 165 | 6.4 | 16.1 | 0.00 | 0.00 | 0.00 | 62 | 1007.3 |
| 20260505122003 | 15 | 176 | 6.4 | 20.9 | 0.00 | 0.00 | 0.00 | 65 | 1007.3 |
| 20260505121003 | 14 | 164 | 4.8 | 16.1 | 0.00 | 0.00 | 0.00 | 68 | 1007.4 |
| 20260505120004 | 14 | 171 | 6.4 | 16.1 | 0.00 | 0.00 | 0.00 | 68 | 1007.4 |
| 20260505115003 | 13 | 154 | 4.8 | 17.7 | 0.00 | 0.00 | 0.00 | 72 | 1007.6 |
| 20260505114004 | 12 | 166 | 4.8 | 11.3 | 0.00 | 0.00 | 0.00 | 77 | 1007.8 |
| 20260505113004 | 11 | 156 | 3.2 | 12.9 | 0.00 | 0.00 | 0.00 | 81 | 1007.8 |
| 20260505112004 | 10 | 138 | 3.2 | 8.0 | 0.00 | 0.00 | 0.00 | 87 | 1007.6 |
| 20260505111004 | 8 | 107 | 1.6 | 6.4 | 0.00 | 0.00 | 0.00 | 93 | 1007.4 |
| 20260505102004 | 3 | 0 | 0.0 | 0.0 | 0.00 | 0.00 | 0.00 | 95 | 1007.6 |
| 20260505101004 | 3 | 0 | 0.0 | 0.0 | 0.00 | 0.00 | 0.00 | 96 | 1007.5 |
| 20260505100004 | 3 | 0 | 0.0 | 0.0 | 0.00 | 0.00 | 0.00 | 95 | 1007.4 |
| 20260505095004 | 3 | 0 | 0.0 | 0.0 | 0.00 | 0.00 | 0.00 | 95 | 1007.5 |
| 20260505094004 | 2 | 0 | 0.0 | 0.0 | 0.00 | 0.00 | 0.00 | 95 | 1007.2 |
| 20260505093004 | 2 | 0 | 0.0 | 0.0 | 0.00 | 0.00 | 0.00 | 95 | 1007.3 |
| 20260505092004 | 2 | 0 | 0.0 | 0.0 | 0.00 | 0.00 | 0.00 | 95 | 1007.2 |
| 20260505091004 | 2 | 0 | 0.0 | 0.0 | 0.00 | 0.00 | 0.00 | 95 | 1007.3 |
| 20260505090025 | 2 | 0 | 0.0 | 0.0 | 0.00 | 0.00 | 0.00 | 95 | 1007.4 |
| 20260505085024 | 2 | 0 | 0.0 | 0.0 | 0.00 | 0.00 | 0.00 | 95 | 1007.4 |
| 20260505084004 | 2 | 0 | 0.0 | 0.0 | 0.00 | 0.00 | 0.00 | 95 | 1007.5 |
| 20260505083004 | 2 | 0 | 0.0 | 0.0 | 0.00 | 0.00 | 0.00 | 95 | 1007.4 |
| 20260505082003 | 2 | 0 | 0.0 | 0.0 | 0.00 | 0.00 | 0.00 | 95 | 1007.5 |
| 20260505081003 | 2 | 0 | 0.0 | 0.0 | 0.00 | 0.00 | 0.00 | 95 | 1007.5 |
| 20260505080004 | 2 | 0 | 0.0 | 0.0 | 0.00 | 0.00 | 0.00 | 94 | 1007.4 |
| 20260505075004 | 2 | 0 | 0.0 | 0.0 | 0.00 | 0.00 | 0.00 | 94 | 1007.5 |
| 20260505074003 | 2 | 0 | 0.0 | 0.0 | 0.00 | 0.00 | 0.00 | 94 | 1007.5 |
| 20260505073025 | 2 | 0 | 0.0 | 0.0 | 0.00 | 0.00 | 0.00 | 94 | 1007.5 |
| 20260505072025 | 2 | 0 | 0.0 | 0.0 | 0.00 | 0.00 | 0.00 | 94 | 1007.4 |
| 20260505071003 | 3 | 0 | 0.0 | 0.0 | 0.00 | 0.00 | 0.00 | 94 | 1007.5 |
| 20260505070003 | 3 | 0 | 0.0 | 0.0 | 0.00 | 0.00 | 0.00 | 94 | 1007.4 |
| 20260505065003 | 3 | 0 | 0.0 | 0.0 | 0.00 | 0.00 | 0.00 | 94 | 1007.4 |
| 20260505064003 | 3 | 0 | 0.0 | 0.0 | 0.00 | 0.00 | 0.00 | 94 | 1007.4 |
| 20260505063003 | 3 | 0 | 0.0 | 0.0 | 0.00 | 0.00 | 0.00 | 94 | 1007.3 |
| 20260505062003 | 3 | 0 | 0.0 | 0.0 | 0.00 | 0.00 | 0.00 | 94 | 1007.3 |
| 20260505061003 | 3 | 0 | 0.0 | 0.0 | 0.00 | 0.00 | 0.00 | 94 | 1007.3 |
| 20260505060003 | 3 | 0 | 0.0 | 0.0 | 0.00 | 0.00 | 0.00 | 94 | 1007.3 |
| 20260505055003 | 3 | 0 | 0.0 | 0.0 | 0.00 | 0.00 | 0.00 | 94 | 1007.4 |
| 20260505054024 | 3 | 0 | 0.0 | 0.0 | 0.00 | 0.00 | 0.00 | 94 | 1007.3 |
| 20260505053003 | 3 | 0 | 0.0 | 0.0 | 0.00 | 0.00 | 0.00 | 93 | 1007.2 |
| 20260505052003 | 3 | 0 | 0.0 | 0.0 | 0.00 | 0.00 | 0.00 | 93 | 1007.1 |
| 20260505051003 | 4 | 0 | 0.0 | 0.0 | 0.00 | 0.00 | 0.00 | 93 | 1007.2 |
| 20260505041003 | 5 | 0 | 0.0 | 0.0 | 0.00 | 0.00 | 0.00 | 92 | 1007.0 |
| 20260505040004 | 5 | 0 | 0.0 | 0.0 | 0.00 | 0.00 | 0.00 | 93 | 1007.0 |
| 20260505035003 | 5 | 0 | 0.0 | 0.0 | 0.00 | 0.00 | 0.00 | 92 | 1007.1 |
| 20260505034003 | 5 | 0 | 0.0 | 0.0 | 0.00 | 0.00 | 0.00 | 91 | 1007.0 |
| 20260505033003 | 5 | 0 | 0.0 | 0.0 | 0.00 | 0.00 | 0.00 | 91 | 1007.0 |
| 20260505032024 | 6 | 0 | 0.0 | 0.0 | 0.00 | 0.00 | 0.00 | 91 | 1007.0 |
| 20260505031003 | 6 | 0 | 0.0 | 0.0 | 0.00 | 0.00 | 0.00 | 90 | 1006.9 |
| 20260505030003 | 6 | 0 | 0.0 | 0.0 | 0.00 | 0.00 | 0.00 | 90 | 1007.0 |
| 20260505025003 | 6 | 0 | 0.0 | 0.0 | 0.00 | 0.00 | 0.00 | 89 | 1007.1 |
| 20260505024004 | 7 | 0 | 0.0 | 0.0 | 0.00 | 0.00 | 0.00 | 89 | 1007.2 |
| 20260505023004 | 7 | 0 | 0.0 | 0.0 | 0.00 | 0.00 | 0.00 | 89 | 1007.2 |
| 20260505022004 | 7 | 0 | 0.0 | 0.0 | 0.00 | 0.00 | 0.00 | 88 | 1007.3 |
| 20260505021004 | 7 | 0 | 0.0 | 0.0 | 0.00 | 0.00 | 0.00 | 88 | 1007.2 |
| 20260505020004 | 7 | 0 | 0.0 | 0.0 | 0.00 | 0.00 | 0.00 | 89 | 1007.2 |
| 20260505015004 | 7 | 0 | 0.0 | 0.0 | 0.00 | 0.00 | 0.00 | 88 | 1007.3 |
| 20260505014004 | 8 | 0 | 0.0 | 0.0 | 0.00 | 0.00 | 0.00 | 87 | 1007.1 |
| 20260505013025 | 8 | 0 | 0.0 | 0.0 | 0.00 | 0.00 | 0.00 | 87 | 1006.9 |
| 20260505012004 | 8 | 0 | 0.0 | 0.0 | 0.00 | 0.00 | 0.00 | 87 | 1007.0 |
| 20260505011004 | 8 | 0 | 0.0 | 0.0 | 0.00 | 0.00 | 0.00 | 87 | 1006.7 |
| 20260505010004 | 9 | 0 | 0.0 | 0.0 | 0.00 | 0.00 | 0.00 | 86 | 1006.6 |
| 20260505005004 | 9 | 0 | 0.0 | 0.0 | 0.00 | 0.00 | 0.00 | 85 | 1006.4 |
| 20260505004004 | 10 | 0 | 0.0 | 0.0 | 0.00 | 0.00 | 0.00 | 84 | 1006.3 |
| 20260505003025 | 10 | 0 | 0.0 | 0.0 | 0.00 | 0.00 | 0.00 | 82 | 1006.1 |
| 20260505002025 | 11 | 0 | 0.0 | 0.0 | 0.00 | 0.00 | 0.00 | 80 | 1005.9 |
| 20260505001004 | 11 | 0 | 0.0 | 0.0 | 0.00 | 0.00 | 0.00 | 76 | 1005.7 |
| 20260505000004 | 12 | 0 | 0.0 | 0.0 | 0.00 | 0.00 | 0.00 | 73 | 1005.7 |
| 20260504235004 | 12 | 0 | 0.0 | 0.0 | 0.00 | 0.00 | 0.00 | 72 | 1005.6 |
| 20260504234004 | 13 | 0 | 0.0 | 0.0 | 0.00 | 0.00 | 0.00 | 72 | 1005.5 |
| 20260504233004 | 13 | 0 | 0.0 | 0.0 | 0.00 | 0.00 | 0.00 | 67 | 1005.4 |
| 20260504232004 | 14 | 0 | 0.0 | 0.0 | 0.00 | 0.00 | 0.00 | 65 | 1005.3 |
| 20260504231025 | 15 | 0 | 0.0 | 0.0 | 0.00 | 0.00 | 0.00 | 63 | 1005.2 |
| 20260504230025 | 15 | 251 | 0.0 | 4.8 | 0.00 | 0.00 | 0.00 | 66 | 1005.1 |
| 20260504225004 | 15 | 242 | 3.2 | 11.3 | 0.00 | 0.00 | 0.00 | 58 | 1005.1 |
| 20260504224004 | 15 | 258 | 1.6 | 11.3 | 0.00 | 0.00 | 0.00 | 61 | 1005.0 |
| 20260504223004 | 15 | 250 | 1.6 | 11.3 | 0.00 | 0.00 | 0.00 | 61 | 1004.9 |
| 20260504222025 | 15 | 257 | 1.6 | 11.3 | 0.00 | 0.00 | 0.00 | 60 | 1004.9 |
| 20260504221025 | 16 | 271 | 1.6 | 11.3 | 0.00 | 0.00 | 0.00 | 56 | 1004.9 |
| 20260504220004 | 16 | 245 | 3.2 | 12.9 | 0.00 | 0.00 | 0.00 | 58 | 1004.9 |
| 20260504215004 | 16 | 251 | 8.0 | 25.7 | 0.00 | 0.00 | 0.00 | 56 | 1005.0 |
| 20260504214004 | 16 | 263 | 4.8 | 19.3 | 0.00 | 0.00 | 0.00 | 56 | 1005.0 |
| 20260504213024 | 17 | 263 | 6.4 | 17.7 | 0.00 | 0.00 | 0.00 | 52 | 1004.8 |
| 20260504212024 | 17 | 268 | 6.4 | 25.7 | 0.00 | 0.00 | 0.00 | 54 | 1004.8 |
| 20260504211004 | 17 | 263 | 9.7 | 32.2 | 0.00 | 0.00 | 0.00 | 52 | 1004.7 |
| 20260504210004 | 17 | 234 | 9.7 | 24.1 | 0.00 | 0.00 | 0.00 | 51 | 1004.6 |
| 20260504205003 | 17 | 260 | 11.3 | 25.7 | 0.00 | 0.00 | 0.00 | 53 | 1004.4 |
| 20260504204024 | 17 | 254 | 12.9 | 33.8 | 0.00 | 0.00 | 0.00 | 52 | 1004.4 |
| 20260504203003 | 17 | 248 | 9.7 | 29.0 | 0.00 | 0.00 | 0.00 | 53 | 1004.4 |
| 20260504202003 | 16 | 248 | 6.4 | 24.1 | 0.00 | 0.00 | 0.00 | 56 | 1004.4 |
| 20260504201003 | 16 | 258 | 11.3 | 22.5 | 0.00 | 0.00 | 0.00 | 55 | 1004.3 |
| 20260504200003 | 17 | 261 | 11.3 | 37.0 | 0.00 | 0.00 | 0.00 | 54 | 1004.1 |
| 20260504195024 | 16 | 241 | 9.7 | 25.7 | 0.00 | 0.00 | 0.00 | 57 | 1004.1 |
| 20260504194003 | 15 | 235 | 12.9 | 38.6 | 0.00 | 0.00 | 0.00 | 58 | 1004.2 |
| 20260504193003 | 16 | 234 | 11.3 | 37.0 | 0.00 | 0.00 | 0.00 | 57 | 1004.2 |
| 20260504192003 | 16 | 215 | 9.7 | 20.9 | 0.00 | 0.03 | 0.00 | 56 | 1004.2 |
| 20260504191003 | 16 | 245 | 11.3 | 30.6 | 0.00 | 0.03 | 0.00 | 57 | 1004.2 |
| 20260504190003 | 15 | 236 | 12.9 | 37.0 | 0.00 | 0.05 | 0.00 | 60 | 1004.4 |
| 20260504185024 | 15 | 231 | 12.9 | 27.4 | 0.00 | 0.05 | 0.00 | 63 | 1004.4 |
| 20260504184024 | 14 | 238 | 11.3 | 30.6 | 0.00 | 0.05 | 0.00 | 62 | 1004.6 |
| 20260504183003 | 15 | 209 | 16.1 | 29.0 | 0.00 | 0.08 | 0.00 | 60 | 1004.7 |
| 20260504182003 | 15 | 217 | 9.7 | 25.7 | 0.00 | 0.08 | 0.00 | 60 | 1004.6 |
| 20260504181003 | 15 | 227 | 12.9 | 30.6 | 0.00 | 0.10 | 0.00 | 59 | 1004.9 |
| 20260504180003 | 14 | 216 | 11.3 | 25.7 | 0.00 | 0.10 | 0.00 | 62 | 1005.0 |
| 20260504175024 | 13 | 214 | 8.0 | 19.3 | 0.00 | 0.13 | 0.00 | 64 | 1005.0 |
| 20260504174024 | 13 | 238 | 9.7 | 24.1 | 0.00 | 0.15 | 0.00 | 64 | 1005.2 |
| 20260504173004 | 13 | 227 | 8.0 | 19.3 | 0.00 | 0.18 | 0.00 | 61 | 1005.1 |
| 20260504172004 | 13 | 231 | 9.7 | 24.1 | 0.00 | 0.18 | 0.00 | 60 | 1005.1 |
| 20260504171004 | 13 | 222 | 4.8 | 16.1 | 0.00 | 0.20 | 0.00 | 59 | 1004.9 |
| 20260504151004 | 13 | 209 | 9.7 | 27.4 | 0.00 | 0.46 | 0.00 | 53 | 1005.0 |